1496098800.91,65491,21.94,74164.5,3.63,-20.29,-20.63,0,*7A
1496098802.14,65492,21.94,74162.5,3.61,-20.39,-20.89,0,*7E
1496098803.39,65493,21.94,74164.3,3.63,-20.49,-21.03,0,*79
1496098804.63,65494,21.94,74162.8,3.65,-20.53,-20.89,0,*70
1496098805.86,65495,21.94,74166.3,3.65,-20.09,-20.53,0,*79
1496098807.09,65496,21.94,74164.3,3.63,-20.15,-20.59,0,*7B
1496098808.28,65497,21.94,74162.5,3.63,-20.29,-20.73,0,*7D
1496098809.49,65498,21.94,74166.0,3.63,-20.43,-20.89,0,*7B
1496098810.73,65499,21.94,74156.8,3.65,-20.59,-21.03,0,*74
1496098811.92,65500,21.94,74160.0,3.63,-20.73,-21.09,0,*71
1496098813.16,65501,21.94,74162.5,3.65,-20.53,-20.89,0,*7D
1496098814.37,65502,21.94,74162.5,3.65,-20.05,-20.39,0,*76
1496098815.59,65503,21.94,74154.0,3.65,-20.09,-20.53,0,*77
1496098816.82,65504,21.94,74154.8,3.63,-20.15,-20.43,0,*7A
1496098818.03,65505,21.94,74158.5,3.65,-20.25,-20.59,0,*75
1496098819.26,65506,21.94,74160.8,3.65,-20.19,-20.59,0,*79
1496098820.54,65507,21.94,74160.8,3.67,-20.19,-20.53,0,*70
1496098821.77,65508,21.94,74160.0,3.65,-20.43,-20.83,0,*7F
1496098823.05,65509,21.94,74162.5,3.67,-20.53,-21.03,0,*74
1496098824.29,65510,21.94,74162.0,3.65,-20.53,-20.89,0,*7D
1496098825.52,65511,21.94,74162.3,3.65,-20.69,-21.03,0,*76
1496098826.76,65512,21.94,74158.3,3.65,-20.59,-20.99,0,*74
1496098828.0,65513,21.94,74160.3,3.65,-20.53,-20.89,0,*7E
1496098829.23,65514,22.0,74164.0,3.65,-20.59,-20.99,0,*72
1496098830.47,65515,21.94,74160.0,3.65,-20.53,-20.89,0,*78
1496098831.73,65516,21.94,74160.3,3.65,-20.53,-20.83,0,*71
1496098832.97,65517,21.94,74162.0,3.65,-20.53,-20.89,0,*7A
1496098834.18,65518,21.94,74158.3,3.65,-20.39,-20.73,0,*7C
1496098835.39,65519,21.94,74158.5,3.65,-20.39,-20.73,0,*7D
1496098836.62,65520,21.94,74160.5,3.63,-20.49,-20.89,0,*73
1496098837.87,65521,21.94,74158.5,3.61,-20.43,-20.79,0,*75
1496098839.08,65522,21.94,74162.8,3.63,-20.43,-20.89,0,*7B
1496098840.32,65523,21.94,74158.3,3.61,-20.43,-20.89,0,*78
1496098841.57,65524,21.94,74158.3,3.63,-20.49,-20.79,0,*78
1496098842.8,65525,21.94,74152.3,3.63,-20.49,-20.89,0,*76
1496098844.02,65526,21.94,74156.0,3.65,-20.59,-20.89,0,*72
1496098845.28,65527,21.94,74162.3,3.65,-20.53,-20.83,0,*73
1496098846.51,65528,21.94,74156.8,3.65,-20.59,-20.83,0,*76
1496098847.74,65529,21.94,74156.8,3.65,-20.73,-20.99,0,*74
1496098848.98,65530,21.94,74162.3,3.65,-20.59,-20.99,0,*74
1496098850.21,65531,21.94,74164.5,3.63,-20.59,-21.03,0,*71
1496098851.41,65532,21.94,74160.8,3.63,-20.63,-20.93,0,*73
1496098852.61,65533,21.94,74160.0,3.63,-20.29,-20.63,0,*73
1496098853.86,65534,21.94,74156.0,3.61,-20.49,-20.89,0,*74
1496098855.07,65535,21.94,74156.0,3.63,-20.43,-20.73,0,*78
1496098856.31,0,21.94,74152.0,3.61,-20.49,-20.89,0,*75
1496098857.51,1,21.94,74158.5,3.65,-20.35,-20.69,0,*75
1496098858.7,2,21.94,74156.8,3.61,-20.29,-20.59,0,*7C
1496098859.93,3,21.94,74158.0,3.61,-20.39,-20.79,0,*7E
1496098861.11,4,21.94,74156.5,3.63,-20.39,-20.73,0,*71
1496098862.32,5,21.94,74156.0,3.63,-20.49,-20.89,0,*72
1496098863.51,6,21.94,74158.3,3.63,-20.43,-20.93,0,*70
1496098864.72,7,21.94,74158.0,3.61,-20.29,-20.79,0,*7B
1496098865.92,8,21.94,74156.0,3.63,-20.15,-20.43,0,*70
1496098867.1,9,21.94,74156.0,3.63,-20.09,-20.59,0,*77
1496098868.33,10,21.94,74156.0,3.61,-20.15,-20.63,0,*49
1496098869.54,11,21.94,74156.3,3.63,-20.15,-20.63,0,*4A
1496098870.72,12,21.94,74156.5,3.63,-20.09,-20.59,0,*4D
1496098871.9,13,21.94,74158.3,3.63,-20.25,-20.73,0,*4A
1496098873.11,14,21.94,74160.3,3.61,-20.39,-20.73,0,*42
1496098874.32,15,21.94,74162.0,3.61,-20.39,-20.73,0,*43
1496098875.53,16,21.94,74160.5,3.63,-20.15,-20.59,0,*44
1496098876.72,17,21.94,74162.3,3.63,-19.99,-20.43,0,*40
1496098877.9,18,21.94,74162.5,3.63,-20.09,-20.59,0,*47
1496098879.12,19,21.94,74162.8,3.61,-20.29,-20.79,0,*44
1496098880.36,20,21.94,74160.3,3.61,-20.15,-20.43,0,*48
1496098881.56,21,21.94,74158.5,3.61,-20.09,-20.39,0,*49
1496098882.77,22,21.94,74160.0,3.61,-20.09,-20.43,0,*47
1496098883.96,23,21.94,74158.5,3.63,-20.25,-20.63,0,*48
1496098885.16,24,21.94,74162.8,3.61,-20.09,-20.43,0,*41
1496098886.34,25,21.94,74160.0,3.63,-20.09,-20.59,0,*49
1496098887.55,26,21.94,74160.5,3.61,-20.25,-20.63,0,*4F
1496098888.78,27,21.94,74160.3,3.61,-20.15,-20.63,0,*4D
1496098889.99,28,21.94,74160.8,3.61,-20.39,-20.73,0,*4D
1496098891.23,29,21.94,74162.0,3.61,-20.43,-20.79,0,*4B
1496098892.44,30,21.94,74162.5,3.63,-20.43,-20.79,0,*41
1496098893.65,31,21.94,74158.0,3.61,-20.63,-20.93,0,*44
1496098894.88,32,21.94,74164.3,3.61,-20.59,-20.79,0,*4A
1496098896.1,33,21.94,74162.5,3.61,-20.63,-20.89,0,*4D
1496098897.32,34,21.94,74162.3,3.61,-20.59,-20.89,0,*43
1496098898.54,35,21.94,74162.8,3.61,-20.59,-20.89,0,*42
1496098899.8,36,21.94,74166.3,3.61,-20.49,-20.79,0,*4F
1496098901.01,37,21.94,74164.0,3.61,-20.39,-20.63,0,*42
1496098902.22,38,21.94,74162.8,3.61,-20.43,-20.63,0,*40
1496098903.44,39,21.94,74164.3,3.61,-20.43,-20.73,0,*40
1496098904.65,40,21.94,74164.3,3.61,-20.43,-20.73,0,*4E
1496098905.86,41,21.94,74164.8,3.59,-20.49,-20.69,0,*45
1496098907.1,42,21.94,74162.3,3.59,-20.19,-20.49,0,*41
1496098908.28,43,21.94,74166.5,3.59,-20.29,-20.63,0,*4B
1496098909.46,44,21.94,74160.3,3.59,-20.43,-20.69,0,*4A
1496098910.67,45,21.94,74166.3,3.59,-20.29,-20.49,0,*45
1496098911.86,46,21.94,74166.3,3.59,-20.43,-20.63,0,*42
1496098913.1,47,21.94,74162.8,3.59,-20.19,-20.49,0,*44
1496098914.32,48,21.94,74162.8,3.59,-20.19,-20.35,0,*40
1496098915.53,49,21.94,74164.3,3.59,-20.19,-20.63,0,*42
1496098916.74,50,21.94,74162.5,3.61,-20.25,-20.43,0,*4C
1496098917.96,51,21.94,74162.0,3.57,-20.25,-20.39,0,*45
1496098919.17,52,21.94,74162.5,3.59,-20.15,-20.43,0,*46
1496098920.35,53,21.94,74164.5,3.59,-20.29,-20.63,0,*4A
1496098921.57,54,21.94,74160.5,3.59,-20.35,-20.79,0,*4B
1496098922.79,55,21.94,74162.5,3.59,-20.35,-20.79,0,*4A
1496098924.03,56,21.94,74164.3,3.57,-20.25,-20.49,0,*45
1496098925.28,57,21.94,74162.8,3.57,-20.19,-20.39,0,*4C
1496098926.51,58,21.94,74166.5,3.57,-20.35,-20.69,0,*48
1496098927.72,59,21.94,74166.3,3.57,-20.09,-20.25,0,*4E
1496098928.98,60,21.94,74162.5,3.57,-20.19,-20.49,0,*4F
1496098930.19,61,21.94,74166.0,3.59,-20.19,-20.43,0,*4A
1496098931.4,62,21.94,74162.8,3.59,-20.19,-20.43,0,*49
1496098932.61,63,21.94,74160.8,3.59,-20.43,-20.79,0,*4E
1496098933.84,64,21.94,74162.8,3.59,-20.35,-20.79,0,*48
1496098935.07,65,21.94,74160.3,3.59,-20.19,-20.49,0,*44
1496098936.26,66,21.94,74162.0,3.59,-19.99,-20.25,0,*4F
1496098937.52,67,21.94,74162.8,3.57,-20.19,-20.53,0,*43
1496098938.76,68,21.94,74166.5,3.57,-20.25,-20.53,0,*43
1496098939.99,69,21.94,74166.3,3.57,-20.05,-20.35,0,*40
1496098941.2,70,21.94,74164.0,3.59,-20.15,-20.43,0,*46
1496098942.41,71,21.94,74166.3,3.59,-19.99,-20.19,0,*46
1496098943.59,72,21.94,74164.0,3.59,-20.05,-20.29,0,*49
1496098944.79,73,21.94,74162.3,3.59,-20.05,-20.35,0,*45
1496098946.0,74,21.94,74166.3,3.57,-20.09,-20.39,0,*4C
1496098947.27,75,21.94,74166.0,3.57,-20.19,-20.53,0,*40
1496098948.48,76,21.94,74166.3,3.59,-20.15,-20.43,0,*40
1496098949.66,77,21.94,74162.0,3.59,-19.99,-20.29,0,*43
1496098950.93,78,21.94,74164.3,3.57,-19.57,-19.81,0,*48
1496098952.17,79,21.94,74162.0,3.57,-19.65,-19.91,0,*49
1496098953.35,80,21.94,74166.8,3.59,-19.99,-20.29,0,*4B
1496098954.55,81,21.94,74170.0,3.59,-20.05,-20.35,0,*48
1496098955.75,82,21.94,74168.5,3.59,-20.05,-20.35,0,*4B
1496098956.98,83,21.94,74164.5,3.57,-20.05,-20.35,0,*44
1496098958.25,84,21.94,74166.3,3.57,-20.19,-20.49,0,*45
1496098959.48,85,21.94,74166.8,3.57,-20.09,-20.53,0,*4E
1496098960.7,86,21.94,74166.3,3.57,-19.95,-20.25,0,*43
1496098961.91,87,21.94,74162.8,3.59,-20.05,-20.49,0,*45
1496098963.14,88,21.94,74164.8,3.59,-20.15,-20.35,0,*40
1496098964.35,89,21.94,74162.8,3.59,-19.99,-20.19,0,*41
1496098965.59,90,21.94,74166.0,3.57,-20.19,-20.69,0,*42
1496098966.85,91,21.94,74164.5,3.57,-20.19,-20.53,0,*4A
1496098968.02,92,21.94,74164.8,3.59,-20.05,-20.29,0,*47
1496098969.26,93,21.94,74166.8,3.57,-19.91,-20.19,0,*4C
1496098970.51,94,21.94,74160.5,3.57,-20.25,-20.49,0,*4B
1496098971.74,95,21.94,74162.5,3.61,-20.15,-20.43,0,*46
1496098972.95,96,21.94,74164.8,3.57,-20.25,-20.39,0,*4E
1496098974.19,97,21.94,74162.8,3.57,-20.19,-20.29,0,*41
1496098975.42,98,21.94,74162.5,3.57,-19.81,-20.05,0,*4B
1496098976.65,99,21.94,74162.5,3.57,-20.05,-20.35,0,*4F
1496098977.87,100,21.94,74162.8,3.57,-19.95,-20.25,0,*7C
1496098979.09,101,21.94,74162.0,3.57,-19.91,-20.09,0,*77
1496098980.33,102,21.94,74160.3,3.57,-20.05,-20.19,0,*72
1496098981.57,103,21.94,74166.8,3.57,-20.05,-20.35,0,*7D
1496098982.8,104,21.94,74160.8,3.55,-20.19,-20.35,0,*75
1496098984.05,105,21.94,74166.5,3.53,-20.15,-20.39,0,*72
1496098985.28,106,21.94,74164.8,3.57,-19.81,-20.05,0,*7D
1496098986.53,107,21.94,74166.3,3.57,-19.91,-20.19,0,*70
1496098987.75,108,21.94,74166.3,3.55,-19.95,-20.19,0,*79
1496098988.94,109,21.94,74162.3,3.55,-20.09,-20.39,0,*75
1496098990.13,110,21.94,74164.0,3.55,-20.09,-20.25,0,*70
1496098991.32,111,21.94,74166.5,3.55,-20.09,-20.25,0,*71
1496098992.56,112,21.94,74160.3,3.55,-20.19,-20.35,0,*72
1496098993.75,113,21.94,74162.3,3.55,-20.05,-20.25,0,*7F
1496098994.96,114,21.94,74162.5,3.55,-20.05,-20.35,0,*79
1496098996.2,115,21.94,74166.8,3.55,-20.19,-20.35,0,*75
1496098997.42,116,21.94,74164.8,3.55,-20.19,-20.39,0,*7A
1496098998.61,117,21.94,74166.0,3.55,-19.95,-20.09,0,*76
1496098999.83,118,21.94,74164.5,3.55,-20.15,-20.25,0,*75
1496099001.04,119,21.94,74164.5,3.55,-20.09,-20.19,0,*76
1496099002.28,120,21.94,74166.3,3.53,-19.85,-19.99,0,*76
1496099003.47,121,21.94,74164.8,3.55,-19.91,-20.05,0,*7B
1496099004.66,122,21.94,74162.0,3.55,-20.05,-20.09,0,*73
1496099005.87,123,21.94,74164.0,3.55,-20.05,-20.19,0,*73
1496099007.09,124,21.94,74164.0,3.53,-19.99,-20.25,0,*72
1496099008.3,125,21.94,74164.3,3.55,-19.81,-20.09,0,*72
1496099009.5,126,21.94,74166.3,3.55,-19.75,-19.95,0,*75
1496099010.74,127,21.94,74166.3,3.53,-19.61,-19.71,0,*7D
1496099011.99,128,21.94,74164.5,3.53,-19.47,-19.61,0,*77
1496099013.26,129,21.94,74164.3,3.53,-19.65,-19.81,0,*78
1496099014.5,130,21.94,74164.5,3.53,-19.71,-19.85,0,*71
1496099015.7,131,21.94,74164.5,3.55,-19.91,-20.05,0,*7A
1496099016.93,132,21.94,74164.8,3.57,-19.81,-19.95,0,*79
1496099018.15,133,21.94,74166.8,3.57,-19.91,-19.95,0,*79
1496099019.36,134,21.94,74164.8,3.55,-19.81,-20.05,0,*7E
1496099020.55,135,21.94,74166.3,3.55,-19.91,-20.05,0,*7E
1496099021.77,136,21.94,74168.0,3.55,-19.85,-19.91,0,*7F
1496099022.99,137,21.94,74166.5,3.55,-19.65,-19.75,0,*7A
1496099024.23,138,21.94,74168.0,3.55,-19.57,-19.65,0,*75
1496099025.51,139,21.94,74170.5,3.53,-19.61,-19.65,0,*77
1496099026.73,140,21.94,74168.3,3.55,-19.65,-19.75,0,*7A
1496099027.97,141,21.94,74170.0,3.55,-19.41,-19.61,0,*78
1496099029.16,142,21.94,74166.3,3.55,-19.51,-19.71,0,*7B
1496099030.4,143,21.94,74164.5,3.55,-19.65,-19.81,0,*72
1496099031.61,144,21.94,74168.3,3.55,-19.81,-19.91,0,*7E
1496099032.8,145,21.94,74168.8,3.55,-19.91,-20.05,0,*79
1496099034.05,146,21.94,74166.5,3.55,-19.31,-19.41,0,*7A
1496099035.27,147,21.94,74168.8,3.55,-19.65,-19.75,0,*7D
1496099036.51,148,21.94,74166.8,3.55,-19.65,-19.81,0,*79
1496099037.73,149,21.94,74164.8,3.55,-19.61,-19.75,0,*77
1496099038.98,150,21.94,74164.0,3.55,-19.57,-19.81,0,*71
1496099040.25,151,21.94,74164.5,3.53,-19.61,-19.65,0,*79
1496099041.47,152,21.94,74164.5,3.55,-19.47,-19.65,0,*78
1496099042.68,153,21.94,74164.0,3.55,-19.81,-19.95,0,*7C
1496099043.91,154,21.94,74162.3,3.55,-19.81,-19.81,0,*7E
1496099045.15,155,21.94,74166.3,3.53,-19.81,-19.95,0,*7C
1496099046.42,156,21.94,74166.0,3.57,-19.61,-19.61,0,*7E
1496099047.7,157,21.94,74166.3,3.53,-19.61,-19.61,0,*7B
1496099048.94,158,21.94,74168.8,3.53,-19.65,-19.71,0,*71
1496099050.21,159,21.94,74166.0,3.57,-19.31,-19.41,0,*76
1496099051.43,160,21.94,74166.0,3.55,-19.47,-19.65,0,*79
1496099052.69,161,21.94,74166.5,3.55,-19.27,-19.27,0,*78
1496099053.93,162,21.94,74164.8,3.57,-19.41,-19.47,0,*7F
1496099055.12,163,21.94,74166.8,3.55,-18.69,-18.73,0,*71
1496099056.34,164,21.94,74166.0,3.57,-18.83,-18.73,0,*70
1496099057.57,165,21.94,74160.3,3.57,-19.17,-19.17,0,*7E
1496099058.84,166,21.94,74162.0,3.57,-19.31,-19.31,0,*7D
1496099060.09,167,21.94,74166.3,3.57,-19.31,-19.47,0,*7D
1496099061.31,168,21.94,74166.8,3.57,-19.13,-19.17,0,*77
1496099062.51,169,21.94,74164.5,3.59,-19.13,-19.13,0,*7C
1496099063.69,170,21.94,74162.8,3.59,-19.07,-19.07,0,*74
1496099064.92,171,21.94,74162.0,3.57,-19.17,-19.13,0,*7F
1496099066.19,172,21.94,74164.5,3.57,-19.31,-19.31,0,*78
1496099067.37,173,21.94,74166.0,3.59,-19.07,-19.07,0,*77
1496099068.6,174,21.94,74162.8,3.57,-19.13,-19.13,0,*7E
1496099069.81,175,21.94,74164.0,3.57,-18.83,-18.83,0,*7F
1496099071.0,176,21.94,74166.5,3.59,-18.79,-18.69,0,*73
1496099072.21,177,21.94,74166.5,3.59,-18.69,-18.55,0,*7C
1496099073.42,178,21.94,74164.8,3.59,-18.93,-18.79,0,*78
1496099074.63,179,21.94,74166.8,3.59,-18.93,-18.79,0,*79
1496099075.82,180,21.94,74166.0,3.59,-18.49,-18.49,0,*7B
1496099077.01,181,21.94,74164.8,3.59,-18.45,-18.49,0,*76
1496099078.19,182,21.94,74160.5,3.59,-18.65,-18.69,0,*75
1496099079.41,183,21.94,74156.3,3.61,-19.07,-19.17,0,*72
1496099080.61,184,21.94,74152.8,3.65,-19.17,-19.17,0,*70
1496099081.82,185,21.94,74154.8,3.61,-19.51,-19.51,0,*75
1496099083.06,186,21.94,74150.5,3.61,-19.47,-19.31,0,*77
1496099084.3,187,21.94,74150.8,3.61,-19.37,-19.23,0,*72
1496099085.51,188,21.94,74146.8,3.63,-19.47,-19.31,0,*7B
1496099086.75,189,21.94,74150.3,3.61,-19.23,-19.03,0,*7B
1496099087.98,190,21.94,74152.0,3.61,-19.23,-19.07,0,*77
1496099089.25,191,21.94,74152.3,3.57,-19.31,-19.31,0,*75
1496099090.49,192,21.94,74152.0,3.61,-19.23,-19.17,0,*74
1496099091.7,193,21.94,74148.5,3.61,-19.17,-19.03,0,*77
1496099092.96,194,21.94,74152.5,3.61,-18.89,-18.93,0,*7E
1496099094.17,195,21.94,74154.0,3.59,-18.79,-18.93,0,*7B
1496099095.39,196,21.94,74156.8,3.57,-18.83,-18.99,0,*79
1496099096.59,197,21.94,74162.3,3.61,-18.79,-19.03,0,*7A
1496099097.83,198,21.94,74166.8,3.61,-18.65,-18.93,0,*70
1496099099.01,199,21.94,74164.5,3.63,-18.73,-19.03,0,*7C
1496099100.27,200,21.94,74166.3,3.61,-18.31,-18.59,0,*75
1496099101.51,201,21.94,74164.0,3.59,-18.35,-18.55,0,*77
1496099102.72,202,21.94,74162.8,3.61,-18.41,-18.65,0,*7F
1496099103.9,203,21.94,74160.3,3.63,-18.49,-18.79,0,*79
1496099105.11,204,21.94,74156.0,3.61,-18.25,-18.41,0,*7D
1496099106.29,205,21.94,74160.8,3.63,-18.17,-18.25,0,*7D
1496099107.48,206,21.94,74156.8,3.63,-18.49,-18.49,0,*7F
1496099108.68,207,21.94,74156.3,3.65,-18.45,-18.59,0,*75
1496099109.87,208,21.94,74160.5,3.63,-18.73,-18.73,0,*71
1496099111.09,209,21.94,74160.3,3.61,-18.65,-18.65,0,*72
1496099112.28,210,21.94,74160.5,3.63,-18.79,-18.65,0,*75
1496099113.51,211,21.94,74160.5,3.61,-19.03,-18.93,0,*73
1496099114.74,212,21.94,74164.0,3.61,-19.07,-18.89,0,*7F
1496099115.93,213,21.94,74164.8,3.63,-19.03,-18.73,0,*7D
1496099117.12,214,21.94,74162.8,3.63,-18.73,-18.65,0,*7B
1496099118.33,215,21.94,74158.8,3.61,-18.79,-18.65,0,*72
1496099119.57,216,21.94,74158.3,3.61,-18.89,-18.73,0,*79
1496099120.8,217,21.94,74158.5,3.61,-18.89,-18.73,0,*78
1496099122.02,218,21.94,74158.0,3.61,-18.79,-18.73,0,*78
1496099123.23,219,21.94,74156.5,3.61,-18.79,-18.65,0,*7E
1496099124.44,220,21.94,74156.8,3.61,-18.65,-18.65,0,*79
1496099125.63,221,21.94,74156.8,3.63,-18.73,-18.65,0,*7D
1496099126.84,222,21.94,74156.5,3.63,-18.89,-18.65,0,*7B
1496099128.03,223,21.94,74160.5,3.63,-18.73,-18.65,0,*7F
1496099129.21,224,21.94,74162.3,3.63,-18.73,-18.65,0,*78
1496099130.44,225,21.94,74166.3,3.61,-18.89,-18.79,0,*73
1496099131.65,226,21.88,74162.8,3.63,-19.03,-18.89,0,*7E
1496099132.86,227,21.94,74160.8,3.61,-18.79,-18.65,0,*73
1496099134.07,228,21.94,74158.0,3.63,-18.89,-18.73,0,*76
1496099135.28,229,21.94,74156.0,3.63,-18.93,-18.79,0,*76
1496099136.49,230,21.94,74156.8,3.63,-19.07,-18.93,0,*76
1496099137.72,231,21.94,74158.8,3.61,-19.03,-18.89,0,*7A
1496099138.95,232,21.94,74156.3,3.61,-18.89,-18.79,0,*75
1496099140.16,233,21.94,74160.5,3.61,-19.03,-18.79,0,*77
1496099141.38,234,21.94,74156.3,3.61,-18.73,-18.59,0,*74
1496099142.6,235,21.94,74154.3,3.61,-18.79,-18.65,0,*70
1496099143.84,236,21.94,74156.8,3.61,-18.93,-18.73,0,*70
1496099145.07,237,21.94,74156.8,3.61,-18.89,-18.73,0,*7A
1496099146.32,238,21.94,74156.3,3.61,-18.93,-18.73,0,*7E
1496099147.55,239,21.94,74154.5,3.61,-18.89,-18.73,0,*74
1496099148.79,240,21.94,74150.8,3.61,-18.89,-18.73,0,*7A
1496099150.0,241,21.94,74154.3,3.63,-18.89,-18.73,0,*79
1496099151.21,242,21.94,74152.8,3.63,-18.93,-18.73,0,*71
1496099152.46,243,21.94,74160.5,3.61,-18.93,-18.73,0,*72
1496099153.69,244,21.94,74162.8,3.61,-19.03,-18.89,0,*78
1496099154.92,245,21.94,74164.5,3.61,-18.89,-18.73,0,*7F
1496099156.14,246,21.94,74162.8,3.63,-18.93,-18.65,0,*72
1496099157.37,247,21.94,74158.0,3.61,-18.93,-18.79,0,*7C
1496099158.56,248,21.94,74160.5,3.63,-19.03,-18.73,0,*73
1496099159.79,249,21.94,74156.5,3.61,-18.89,-18.65,0,*74
1496099161.0,250,21.94,74156.3,3.63,-18.89,-18.65,0,*7E
1496099162.23,251,21.94,74162.3,3.61,-18.73,-18.59,0,*77
1496099163.44,252,21.94,74160.5,3.61,-18.65,-18.41,0,*7A
1496099164.67,253,21.94,74160.3,3.61,-18.59,-18.45,0,*70
1496099165.91,254,21.94,74162.5,3.61,-18.59,-18.49,0,*7B
1496099167.12,255,21.94,74160.5,3.61,-18.73,-18.49,0,*72
1496099168.35,256,21.94,74162.8,3.61,-18.59,-18.41,0,*71
1496099169.58,257,21.94,74160.3,3.61,-18.59,-18.45,0,*74
1496099170.79,258,21.94,74162.0,3.61,-18.65,-18.45,0,*74
1496099172.01,259,21.94,74160.5,3.61,-18.73,-18.65,0,*70
1496099173.19,260,21.88,74156.5,3.63,-18.79,-18.65,0,*72
1496099174.39,261,21.88,74158.5,3.59,-18.69,-18.65,0,*7B
1496099175.61,262,21.94,74156.0,3.61,-18.65,-18.59,0,*70
1496099176.83,263,21.94,74152.8,3.57,-18.99,-18.73,0,*7F
1496099178.04,264,21.94,74154.0,3.59,-18.93,-18.83,0,*73
1496099179.26,265,21.88,74148.5,3.59,-18.93,-18.79,0,*77
1496099180.45,266,21.94,74154.3,3.59,-18.69,-18.65,0,*7C
1496099181.64,267,21.88,74156.3,3.59,-18.79,-18.65,0,*7C
1496099182.85,268,21.94,74158.5,3.59,-18.93,-18.79,0,*7A
1496099184.04,269,21.94,74158.5,3.59,-18.79,-18.65,0,*72
1496099185.27,270,21.94,74162.0,3.61,-18.59,-18.45,0,*71
1496099186.48,271,21.94,74164.5,3.61,-18.73,-18.65,0,*7A
1496099187.71,272,21.94,74164.5,3.61,-18.79,-18.59,0,*7C
1496099188.92,273,21.94,74166.8,3.61,-18.73,-18.65,0,*78
1496099190.13,274,21.94,74162.0,3.61,-18.73,-18.49,0,*71
1496099191.32,275,21.94,74160.5,3.59,-18.99,-18.69,0,*7D
1496099192.56,276,21.94,74160.8,3.61,-18.89,-18.65,0,*78
1496099193.75,277,21.94,74156.8,3.59,-18.83,-18.65,0,*78
1496099194.94,278,21.88,74158.8,3.59,-18.69,-18.49,0,*7D
1496099196.15,279,21.88,74154.3,3.61,-18.49,-18.49,0,*75
1496099197.38,280,21.88,74156.0,3.61,-18.59,-18.49,0,*72
1496099198.61,281,21.88,74158.5,3.61,-18.59,-18.45,0,*7F
1496099199.83,282,21.94,74164.0,3.61,-18.65,-18.49,0,*7F
1496099201.04,283,21.94,74162.5,3.61,-18.79,-18.65,0,*7D
1496099202.25,284,21.94,74160.8,3.59,-18.93,-18.79,0,*78
1496099203.46,285,21.94,74160.3,3.59,-18.93,-18.79,0,*79
1496099204.64,286,21.94,74162.5,3.59,-18.99,-18.79,0,*70
1496099205.86,287,21.94,74162.8,3.59,-18.93,-18.69,0,*7A
1496099207.08,288,21.88,74160.0,3.59,-18.93,-18.69,0,*75
1496099208.32,289,21.94,74166.0,3.57,-18.89,-18.73,0,*7A
1496099209.51,290,21.94,74162.8,3.59,-18.69,-18.65,0,*75
1496099210.73,291,21.94,74158.5,3.57,-18.83,-18.73,0,*79
1496099211.95,292,21.94,74156.5,3.57,-18.73,-18.69,0,*7E
1496099213.16,293,21.94,74162.0,3.59,-18.79,-18.55,0,*74
1496099214.35,294,21.88,74158.8,3.59,-18.79,-18.69,0,*7C
1496099215.56,295,21.88,74160.0,3.59,-18.89,-18.73,0,*79
1496099216.77,296,21.88,74160.5,3.59,-18.69,-18.55,0,*70
1496099218.01,297,21.88,74160.5,3.57,-18.89,-18.73,0,*75
1496099219.2,298,21.88,74162.8,3.59,-18.79,-18.65,0,*7C
1496099220.41,299,21.94,74164.0,3.59,-18.65,-18.55,0,*73
1496099221.64,300,21.88,74158.0,3.57,-18.83,-18.73,0,*70
1496099222.82,301,21.88,74158.5,3.59,-18.83,-18.65,0,*78
1496099224.03,302,21.94,74164.8,3.59,-18.99,-18.89,0,*72
1496099225.25,303,21.88,74164.8,3.57,-18.99,-18.83,0,*77
1496099226.43,304,21.88,74164.5,3.59,-18.83,-18.79,0,*70
1496099227.64,305,21.88,74160.3,3.59,-18.93,-18.79,0,*70
1496099228.86,306,21.94,74162.3,3.57,-18.73,-18.69,0,*72
1496099230.1,307,21.88,74156.0,3.57,-18.69,-18.59,0,*7B
1496099231.34,308,21.94,74162.0,3.57,-18.89,-18.73,0,*72
1496099232.58,309,21.88,74162.0,3.57,-18.73,-18.55,0,*72
1496099233.82,310,21.88,74160.3,3.57,-18.69,-18.55,0,*71
1496099235.06,311,21.88,74160.0,3.57,-18.59,-18.41,0,*76
1496099236.3,312,21.88,74160.0,3.57,-18.55,-18.49,0,*71
1496099237.54,313,21.94,74166.3,3.57,-18.59,-18.49,0,*7C
1496099238.77,314,21.88,74160.5,3.57,-18.55,-18.41,0,*7F
1496099240.01,315,21.88,74164.5,3.57,-18.59,-18.49,0,*7A
1496099241.25,316,21.88,74162.8,3.57,-18.89,-18.69,0,*76
1496099242.49,317,21.94,74164.3,3.57,-18.83,-18.59,0,*7E
1496099243.71,318,21.88,74162.8,3.57,-18.83,-18.73,0,*79
1496099244.93,319,21.88,74164.5,3.57,-18.83,-18.69,0,*73
1496099246.14,320,21.88,74164.3,3.55,-18.55,-18.49,0,*72
1496099247.35,321,21.88,74164.0,3.55,-18.59,-18.41,0,*77
1496099248.55,322,21.94,74166.0,3.55,-18.41,-18.11,0,*78
1496099249.77,323,21.88,74164.5,3.55,-18.41,-18.35,0,*7F
1496099251.01,324,21.94,74162.0,3.57,-18.59,-18.41,0,*70
1496099252.28,325,21.88,74162.8,3.57,-18.55,-18.35,0,*7E
1496099253.51,326,21.88,74160.8,3.57,-18.55,-18.25,0,*7C
1496099254.75,327,21.88,74164.5,3.57,-18.55,-18.41,0,*7F
1496099255.99,328,21.88,74162.0,3.57,-18.59,-18.49,0,*74
1496099257.23,329,21.94,74164.0,3.57,-18.55,-18.41,0,*71
1496099258.47,330,21.88,74160.5,3.57,-18.55,-18.49,0,*71
1496099259.73,331,21.88,74160.0,3.57,-18.55,-18.59,0,*71
1496099260.94,332,21.88,74162.0,3.57,-18.73,-18.69,0,*75
1496099262.16,333,21.88,74162.3,3.57,-18.73,-18.69,0,*74
1496099263.38,334,21.88,74162.3,3.57,-18.83,-18.69,0,*7C
1496099264.6,335,21.88,74160.8,3.55,-18.69,-18.55,0,*74
1496099265.81,336,21.88,74164.5,3.57,-18.49,-18.41,0,*72
1496099267.02,337,21.88,74164.5,3.57,-18.49,-18.41,0,*73
1496099268.24,338,21.88,74160.0,3.57,-18.83,-18.69,0,*70
1496099269.43,339,21.94,74166.8,3.59,-18.69,-18.49,0,*79
1496099270.67,340,21.88,74160.5,3.57,-18.59,-18.41,0,*72
1496099271.9,341,21.88,74160.3,3.57,-18.55,-18.25,0,*7D
1496099273.15,342,21.88,74162.0,3.57,-18.49,-18.35,0,*72
1496099274.39,343,21.88,74160.3,3.57,-18.59,-18.49,0,*79
1496099275.63,344,21.88,74162.3,3.57,-18.69,-18.55,0,*70
1496099276.85,345,21.94,74160.3,3.57,-18.83,-18.69,0,*7A
1496099278.07,346,21.88,74160.0,3.57,-18.83,-18.69,0,*79
1496099279.31,347,21.88,74158.8,3.57,-18.69,-18.55,0,*73
1496099280.53,348,21.88,74160.0,3.57,-18.69,-18.49,0,*71
1496099281.78,349,21.88,74164.0,3.57,-18.41,-18.35,0,*71
1496099282.97,350,21.88,74164.3,3.59,-18.45,-18.21,0,*76
1496099284.21,351,21.88,74160.5,3.57,-18.59,-18.49,0,*7A
1496099285.44,352,21.88,74162.8,3.57,-18.73,-18.55,0,*7C
1496099286.67,353,21.88,74160.8,3.57,-18.41,-18.21,0,*7F
1496099287.9,354,21.88,74162.0,3.57,-18.59,-18.49,0,*7F
1496099289.14,355,21.88,74162.0,3.57,-18.59,-18.49,0,*7E
1496099290.38,356,21.88,74162.0,3.57,-18.59,-18.41,0,*75
1496099291.62,357,21.88,74162.8,3.57,-18.83,-18.55,0,*76
1496099292.83,358,21.88,74160.5,3.59,-18.79,-18.55,0,*72
1496099294.07,359,21.88,74158.8,3.57,-18.73,-18.59,0,*7B
1496099295.3,360,21.88,74162.3,3.57,-18.73,-18.59,0,*71
1496099296.54,361,21.88,74162.8,3.57,-18.73,-18.55,0,*7C
1496099297.78,362,21.88,74164.0,3.57,-18.73,-18.59,0,*73
1496099299.01,363,21.88,74166.0,3.57,-18.83,-18.59,0,*7D
1496099300.22,364,21.88,74164.3,3.55,-18.83,-18.59,0,*78
1496099301.44,365,21.88,74164.3,3.57,-18.69,-18.49,0,*7E
1496099302.68,366,21.88,74166.3,3.55,-18.55,-18.35,0,*7B
1496099303.89,367,21.88,74166.3,3.57,-18.49,-18.25,0,*74
1496099305.08,368,21.88,74166.3,3.55,-18.41,-18.21,0,*75
1496099306.28,369,21.88,74164.5,3.55,-18.41,-18.21,0,*74
1496099307.49,370,21.88,74160.8,3.55,-18.49,-18.35,0,*71
1496099308.73,371,21.88,74160.5,3.55,-18.55,-18.35,0,*7D
1496099309.95,372,21.88,74162.8,3.55,-18.49,-18.35,0,*73
1496099311.17,373,21.88,74160.3,3.55,-18.73,-18.55,0,*7D
1496099312.39,374,21.88,74160.8,3.55,-18.89,-18.59,0,*73
1496099313.61,375,21.88,74164.8,3.55,-18.83,-18.55,0,*74
1496099314.82,376,21.88,74164.5,3.55,-18.83,-18.59,0,*7B